sat.trackr.live / text

‹ back to catalog

STARLINK-32760

NORAD 62568 · 2025-006Q

PAYLOAD ACTIVE UNKNOWN

§ Identity

Operator
Country
US
Launch date
2025-01-10
Launch site
AFETR
Launch vehicle
Mass (kg)
RCS (m²)

Purposes: comms

External: N2YO · Heavens-Above · Gunter

§ Orbital elements

Epoch: 2026-05-25T05:02:16.968768Z

Period
94.27 min
Inclination
43.0015°
Eccentricity
0.0001771
Mean motion
15.27590675 rev/d
Perigee alt
481.8 km
Apogee alt
484.2 km
Semi-major
6,861.2 km
B*
6.3656e-4
RAAN
220.5750°
Arg perigee
276.1582°
Mean anomaly
83.9068°
Rev number
7,656

§ Raw data

STARLINK-327601 62568U 25006Q   26145.20991862  .00017302  00000+0  63656-3 0  99962 62568  43.0015 220.5750 0001771 276.1582  83.9068 15.27590675 76565

JSON: /api/v1/satellites/62568 · /tle

For live sub-satellite position, see the globe view (requires WebGL).

§ Visibility from observer

Set your observer location to see the next 7 days of passes ≥ 10°. The values pass through the URL so the page stays shareable.

No JS? Fill the form by hand. The geolocation button needs JavaScript.